FW4383 Weather Reports


Display with metric or nautical units.
time (UTC)temp
F
wind
direction
speed
MPH
gust
MPH
rain 1hr
in
rain 24hr
in
rain mn
in
humidity
%
barometer
mb
20260901094532 66 267 9.0 18.0 0.00 0.00 0.00 65 1011.2
20260901093034 66 256 6.0 18.0 0.00 0.00 0.00 65 1011.3
20260901091607 66 249 5.0 12.0 0.00 0.00 0.00 65 1011.2
20260901090037 64 239 4.0 13.0 0.00 0.00 0.00 70 1011.0
20260901084530 56 188 2.0 11.0 0.00 0.00 0.00 76 1011.2
20260901083034 55 214 1.0 8.0 0.00 0.00 0.00 78 1011.2
20260901081536 53 185 1.0 5.0 0.00 0.00 0.00 81 1011.3
20260901080035 53 221 1.0 5.0 0.00 0.00 0.00 82 1011.1
20260901074536 53 252 0.0 5.0 0.00 0.00 0.00 80 1011.0
20260901073033 54 136 0.0 3.0 0.00 0.00 0.00 79 1010.9
20260901071530 54 265 0.0 4.0 0.00 0.00 0.00 77 1010.8
20260901070145 55 270 0.0 0.0 0.00 0.00 0.00 75 1010.7
20260901064535 56 270 0.0 0.0 0.00 0.00 0.00 74 1010.8
20260901063031 56 267 0.0 4.0 0.00 0.00 0.00 74 1010.9
20260901054536 57 169 1.0 4.0 0.00 0.00 0.00 72 1010.9
20260901053037 57 157 0.0 2.0 0.00 0.00 0.00 71 1010.8
20260901051651 58 113 0.0 2.0 0.00 0.00 0.00 71 1010.8
20260901050034 59 326 0.0 3.0 0.00 0.00 0.00 69 1010.8
20260901044608 60 50 0.0 3.0 0.00 0.00 0.00 68 1010.7
20260901043035 61 125 0.0 4.0 0.00 0.00 0.00 66 1010.5
20260901041535 61 228 0.0 4.0 0.00 0.00 0.00 65 1010.4
20260901040031 62 201 0.0 2.0 0.00 0.00 0.00 64 1010.1
20260901034535 64 225 0.0 2.0 0.00 0.00 0.00 61 1010.0
20260901033144 64 204 0.0 3.0 0.00 0.00 0.00 59 1009.8
20260901031536 66 167 1.0 4.0 0.00 0.00 0.00 56 1009.7
20260901030033 68 180 0.0 2.0 0.00 0.00 0.00 52 1009.4
20260901024533 68 180 2.0 3.0 0.00 0.00 0.00 52 1009.3
20260901023031 69 175 1.0 3.0 0.00 0.00 0.00 54 1009.1
20260901021534 71 237 0.0 2.0 0.00 0.00 0.00 50 1009.1
20260901020032 75 247 0.0 1.0 0.00 0.00 0.00 45 1009.1
20260901014535 80 247 0.0 0.0 0.00 0.00 0.00 39 1009.1
20260901013034 85 247 0.0 3.0 0.00 0.00 0.00 30 1009.1
20260901011535 88 247 2.0 4.0 0.00 0.00 0.00 24 1009.2
20260901010032 90 247 1.0 2.0 0.00 0.00 0.00 22 1009.3
20260901004609 91 184 1.0 4.0 0.00 0.00 0.00 26 1009.5
20260901003038 90 138 0.0 5.0 0.00 0.00 0.00 25 1009.6
20260901001605 91 88 0.0 5.0 0.00 0.00 0.00 26 1009.7
20260901000035 90 355 1.0 5.0 0.00 0.00 0.00 26 1009.8
20260831234535 90 33 2.0 6.0 0.00 0.00 0.00 27 1009.9
20260831233152 89 48 2.0 5.0 0.00 0.00 0.00 27 1010.1
20260831231536 88 108 2.0 7.0 0.00 0.00 0.00 26 1010.3
20260831230037 89 87 4.0 8.0 0.00 0.00 0.00 26 1010.5
20260831224535 88 58 1.0 6.0 0.00 0.00 0.00 27 1010.8
20260831223033 88 91 3.0 10.0 0.00 0.00 0.00 28 1011.1
20260831220143 87 89 2.0 9.0 0.00 0.00 0.00 30 1011.5
20260831214605 86 75 2.0 6.0 0.00 0.00 0.00 31 1011.8
20260831213035 85 94 3.0 9.0 0.00 0.00 0.00 31 1012.1
20260831210034 83 82 6.0 11.0 0.00 0.00 0.00 33 1012.5
20260831204642 82 83 5.0 11.0 0.00 0.00 0.00 36 1012.6
20260831201534 81 55 4.0 11.0 0.00 0.00 0.00 38 1013.4
20260831194606 79 52 5.0 11.0 0.00 0.00 0.00 40 1013.9
20260831193036 78 46 4.0 13.0 0.00 0.00 0.00 41 1014.1
20260831191536 78 52 5.0 12.0 0.00 0.00 0.00 41 1014.5
20260831190033 77 53 4.0 12.0 0.00 0.00 0.00 45 1014.8
20260831181535 74 35 4.0 9.0 0.00 0.00 0.00 52 1015.6
20260831180035 71 31 3.0 8.0 0.00 0.00 0.00 58 1015.8
20260831174535 70 347 3.0 7.0 0.00 0.00 0.00 61 1015.9
20260831173036 68 346 2.0 6.0 0.00 0.00 0.00 63 1016.1
20260831171537 67 349 1.0 6.0 0.00 0.00 0.00 64 1016.3
20260831170037 66 78 0.0 4.0 0.00 0.00 0.00 65 1016.4
20260831164536 64 14 0.0 2.0 0.00 0.00 0.00 66 1016.7
20260831160106 60 157 0.0 2.0 0.00 0.00 0.00 75 1017.2
20260831154533 57 157 1.0 2.0 0.00 0.00 0.00 79 1017.2
20260831153036 55 149 2.0 4.0 0.00 0.00 0.00 84 1017.3
20260831144535 47 125 1.0 4.0 0.00 0.00 0.00 93 1017.1
20260831141537 45 157 0.0 0.0 0.00 0.00 0.00 92 1017.0
20260831140032 45 157 0.0 0.0 0.00 0.00 0.00 92 1016.9
20260831133038 44 157 1.0 2.0 0.00 0.00 0.00 92 1016.8
20260831131533 44 157 1.0 2.0 0.00 0.00 0.00 91 1016.8
20260831130031 44 157 0.0 1.0 0.00 0.00 0.00 91 1016.8
20260831124532 45 157 0.0 0.0 0.00 0.00 0.00 91 1016.8
20260831123033 46 157 0.0 0.0 0.00 0.00 0.00 91 1016.7
20260831121533 46 157 0.0 0.0 0.00 0.00 0.00 91 1016.7
20260831120035 47 157 0.0 0.0 0.00 0.00 0.00 91 1016.8
20260831114536 46 157 2.0 4.0 0.00 0.00 0.00 91 1016.8
20260831113034 46 157 0.0 2.0 0.00 0.00 0.00 91 1016.8
20260831111535 46 157 0.0 3.0 0.00 0.00 0.00 90 1016.8
20260831110035 46 157 1.0 4.0 0.00 0.00 0.00 89 1016.8
20260831103029 47 157 0.0 1.0 0.00 0.00 0.00 89 1016.8
20260831101534 47 157 0.0 0.0 0.00 0.00 0.00 89 1016.9
20260831100033 47 157 0.0 2.0 0.00 0.00 0.00 88 1017.0